FW6744 Weather Reports


time (UTC)temp
C
wind
direction
speed
KPH
gust
KPH
rain 1hr
cm
rain 24hr
cm
rain mn
cm
humidity
%
barometer
mb
20260831005833 26 290 0.0 0.0 0.00 0.00 0.00 80 1015.5
20260831005326 26 290 0.0 0.0 0.00 0.00 0.00 79 1015.4
20260831004820 26 290 0.0 0.0 0.00 0.00 0.00 78 1015.3
20260831004314 26 290 0.0 0.0 0.00 0.00 0.00 78 1015.2
20260831004033 26 290 0.0 0.0 0.00 0.00 0.00 77 1015.1
20260831003301 26 290 0.0 0.0 0.00 0.00 0.00 77 1014.9
20260831002756 26 290 0.0 0.0 0.00 0.00 0.00 77 1014.9
20260831002250 26 290 0.0 0.0 0.00 0.00 0.00 76 1014.8
20260831002236 26 289 0.0 0.0 0.00 0.00 0.00 75 1014.8
20260831001502 27 290 0.0 0.0 0.00 0.00 0.00 74 1014.7
20260831000957 27 289 0.0 0.0 0.00 0.00 0.00 74 1014.7
20260831000447 27 290 0.0 0.0 0.00 0.00 0.00 73 1014.7
20260830235723 27 289 0.0 0.0 0.00 0.00 0.00 72 1014.8
20260830235223 27 289 0.0 0.0 0.00 0.00 0.00 72 1014.8
20260830234723 28 289 0.0 0.0 0.00 0.00 0.00 71 1014.8
20260830234224 28 289 0.0 0.0 0.00 0.00 0.00 70 1014.8
20260830233723 28 290 0.0 0.0 0.00 0.00 0.00 69 1014.8
20260830233223 29 289 0.0 0.0 0.00 0.00 0.00 67 1014.8
20260830232722 29 289 0.0 1.6 0.00 0.00 0.00 67 1014.9
20260830232220 29 289 0.0 1.6 0.00 0.00 0.00 65 1014.9
20260830231718 30 253 0.0 0.0 0.00 0.00 0.00 65 1014.9
20260830231216 30 253 0.0 0.0 0.00 0.00 0.00 65 1014.9
20260830230715 30 253 0.0 0.0 0.00 0.00 0.00 65 1014.9
20260830230216 30 253 0.0 0.0 0.00 0.00 0.00 65 1014.8
20260830225712 30 254 0.0 1.6 0.00 0.00 0.00 64 1014.7
20260830225434 30 253 0.0 1.6 0.00 0.00 0.00 62 1014.8
20260830224714 31 188 0.0 0.0 0.00 0.00 0.00 62 1014.8
20260830224213 31 172 0.0 0.0 0.00 0.00 0.00 61 1014.7
20260830223713 31 172 0.0 0.0 0.00 0.00 0.00 61 1014.7
20260830223211 31 172 0.0 1.6 0.00 0.00 0.00 61 1014.8
20260830222712 31 172 0.0 1.6 0.00 0.00 0.00 61 1014.7
20260830222209 31 140 0.0 3.2 0.00 0.00 0.00 60 1014.8
20260830221710 32 122 0.0 3.2 0.00 0.00 0.00 59 1014.7
20260830221210 32 141 0.0 0.0 0.00 0.00 0.00 59 1014.7
20260830220936 32 141 0.0 0.0 0.00 0.00 0.00 59 1014.8
20260830220209 33 34 0.0 0.0 0.00 0.00 0.00 59 1014.8
20260830215931 33 63 0.0 0.0 0.00 0.00 0.00 57 1014.8
20260830215210 33 199 0.0 1.6 0.00 0.00 0.00 56 1014.7
20260830214710 33 86 0.0 1.6 0.00 0.00 0.00 55 1014.7
20260830214208 34 349 0.0 1.6 0.00 0.00 0.00 54 1014.7
20260830213710 34 136 0.0 1.6 0.00 0.00 0.00 53 1014.6
20260830213209 35 119 0.0 1.6 0.00 0.00 0.00 53 1014.6
20260830212935 35 118 0.0 1.6 0.00 0.00 0.00 52 1014.5
20260830212209 35 99 0.0 3.2 0.00 0.00 0.00 52 1014.6
20260830211710 35 279 0.0 3.2 0.00 0.00 0.00 52 1014.5
20260830211208 35 236 0.0 1.6 0.00 0.00 0.00 53 1014.5
20260830210708 35 215 0.0 3.2 0.00 0.00 0.00 52 1014.5
20260830210430 35 95 0.0 6.4 0.00 0.00 0.00 52 1014.5
20260830205708 35 18 0.0 6.4 0.00 0.00 0.00 53 1014.5
20260830205210 35 39 0.0 3.2 0.00 0.00 0.00 54 1014.5
20260830204710 34 221 0.0 3.2 0.00 0.00 0.00 54 1014.7
20260830204210 34 153 1.6 3.2 0.00 0.00 0.00 53 1014.6
20260830203706 34 46 1.6 6.4 0.00 0.00 0.00 53 1014.7
20260830203208 34 184 1.6 6.4 0.00 0.00 0.00 53 1014.8
20260830202707 35 94 0.0 3.2 0.00 0.00 0.00 54 1014.8
20260830202206 35 100 0.0 1.6 0.00 0.00 0.00 55 1014.8
20260830201922 35 332 0.0 1.6 0.00 0.00 0.00 53 1015.0
20260830201208 35 321 0.0 3.2 0.00 0.00 0.00 52 1015.0
20260830200702 34 179 0.0 3.2 0.00 0.00 0.00 53 1015.0
20260830200155 34 205 0.0 3.2 0.00 0.00 0.00 55 1015.1
20260830195916 34 96 0.0 6.4 0.00 0.00 0.00 55 1015.2
20260830195143 34 182 0.0 6.4 0.00 0.00 0.00 56 1015.3
20260830194638 34 161 0.0 4.8 0.00 0.00 0.00 56 1015.4
20260830194132 34 91 0.0 4.8 0.00 0.00 0.00 55 1015.4
20260830193847 34 210 0.0 3.2 0.00 0.00 0.00 55 1015.6
20260830193120 33 201 1.6 4.8 0.00 0.00 0.00 57 1015.7
20260830192613 33 179 0.0 4.8 0.00 0.00 0.00 57 1015.9
20260830192108 33 92 0.0 4.8 0.00 0.00 0.00 56 1015.9
20260830191826 34 91 0.0 4.8 0.00 0.00 0.00 57 1016.0
20260830191056 34 183 0.0 3.2 0.00 0.00 0.00 57 1016.0
20260830190814 33 108 0.0 1.6 0.00 0.00 0.00 58 1016.1
20260830190044 33 217 0.0 6.4 0.00 0.00 0.00 59 1016.1
20260830185757 32 143 0.0 6.4 0.00 0.00 0.00 59 1016.3
20260830185251 32 72 0.0 4.8 0.00 0.00 0.00 60 1016.3
20260830184525 33 95 1.6 8.0 0.00 0.00 0.00 57 1016.3
20260830184019 33 148 0.0 8.0 0.00 0.00 0.00 58 1016.4
20260830183513 33 69 0.0 6.4 0.00 0.00 0.00 59 1016.5
20260830183008 33 32 1.6 6.4 0.00 0.00 0.00 58 1016.6
20260830182722 33 137 0.0 4.8 0.00 0.00 0.00 59 1016.7
20260830181956 33 124 0.0 4.8 0.00 0.00 0.00 60 1016.9
20260830181450 32 252 0.0 3.2 0.00 0.00 0.00 62 1016.8
20260830180943 32 113 0.0 3.2 0.00 0.00 0.00 61 1017.0
20260830180438 32 102 1.6 6.4 0.00 0.00 0.00 61 1017.2
20260830180157 32 167 0.0 6.4 0.00 0.00 0.00 61 1017.2
20260830175426 32 154 0.0 4.8 0.00 0.00 0.00 62 1017.2
20260830175139 32 116 0.0 4.8 0.00 0.00 0.00 63 1017.3
20260830174900 31 173 0.0 4.8 0.00 0.00 0.00 65 1017.2
20260830173908 31 68 1.6 6.4 0.00 0.00 0.00 65 1017.3
20260830173401 31 53 1.6 6.4 0.00 0.00 0.00 62 1017.4
20260830172856 32 51 0.0 3.2 0.00 0.00 0.00 62 1017.4
20260830172350 32 274 0.0 1.6 0.00 0.00 0.00 63 1017.4
20260830171844 31 253 0.0 1.6 0.00 0.00 0.00 62 1017.5
20260830171337 31 117 0.0 1.6 0.00 0.00 0.00 65 1017.6
20260830170832 31 38 0.0 1.6 0.00 0.00 0.00 66 1017.6
20260830170545 31 89 0.0 1.6 0.00 0.00 0.00 65 1017.7
20260830165820 31 338 0.0 4.8 0.00 0.00 0.00 65 1017.7
20260830165313 30 11 0.0 4.8 0.00 0.00 0.00 65 1017.8
20260830164808 30 225 1.6 4.8 0.00 0.00 0.00 66 1017.7
20260830164521 30 95 1.6 4.8 0.00 0.00 0.00 67 1017.9
20260830163756 30 134 0.0 4.8 0.00 0.00 0.00 67 1017.8
20260830163250 30 349 0.0 3.2 0.00 0.00 0.00 70 1017.9
20260830163006 29 232 0.0 3.2 0.00 0.00 0.00 70 1018.0
20260830162459 29 268 0.0 3.2 0.00 0.00 0.00 70 1018.0
20260830161954 28 200 0.0 3.2 0.00 0.00 0.00 71 1018.0
20260830161226 28 225 0.0 3.2 0.00 0.00 0.00 73 1018.0
20260830160720 28 191 0.0 6.4 0.00 0.00 0.00 73 1018.1
20260830160214 28 215 0.0 8.0 0.00 0.00 0.00 76 1018.3
20260830155708 28 235 0.0 8.0 0.00 0.00 0.00 75 1018.3
20260830155201 28 58 0.0 3.2 0.00 0.00 0.00 75 1018.4
20260830154656 27 199 0.0 4.8 0.00 0.00 0.00 76 1018.3
20260830154150 27 34 0.0 4.8 0.00 0.00 0.00 77 1018.3
20260830153644 27 43 0.0 4.8 0.00 0.00 0.00 78 1018.4
20260830153138 27 32 1.6 4.8 0.00 0.00 0.00 78 1018.5
20260830152859 27 169 1.6 4.8 0.00 0.00 0.00 77 1018.4
20260830152126 27 219 0.0 4.8 0.00 0.00 0.00 78 1018.4
20260830151617 27 245 0.0 4.8 0.00 0.00 0.00 79 1018.5
20260830151111 27 118 0.0 3.2 0.00 0.00 0.00 80 1018.5
20260830150605 26 25 0.0 3.2 0.00 0.00 0.00 81 1018.5
20260830150059 26 161 0.0 3.2 0.00 0.00 0.00 82 1018.4
20260830145054 26 7 0.0 3.2 0.00 0.00 0.00 83 1018.5
20260830144553 25 35 0.0 1.6 0.00 0.00 0.00 84 1018.5
20260830144053 25 162 0.0 1.6 0.00 0.00 0.00 84 1018.5
20260830143549 25 146 0.0 1.6 0.00 0.00 0.00 84 1018.5
20260830143311 25 146 0.0 3.2 0.00 0.00 0.00 85 1018.6
20260830142544 25 188 0.0 3.2 0.00 0.00 0.00 86 1018.5
20260830142045 25 8 0.0 1.6 0.00 0.00 0.00 87 1018.6
20260830141544 25 257 0.0 0.0 0.00 0.00 0.00 89 1018.6
20260830141042 25 257 0.0 0.0 0.00 0.00 0.00 90 1018.6
20260830140540 24 258 0.0 0.0 0.00 0.00 0.00 89 1018.6
20260830140041 24 149 0.0 0.0 0.00 0.00 0.00 90 1018.7
20260830135541 24 148 0.0 0.0 0.00 0.00 0.00 90 1018.7
20260830135037 24 148 0.0 0.0 0.00 0.00 0.00 90 1018.8
20260830134538 24 148 0.0 0.0 0.00 0.00 0.00 90 1018.9
20260830134038 24 148 0.0 0.0 0.00 0.00 0.00 90 1019.0
20260830133537 24 148 0.0 1.6 0.00 0.00 0.00 91 1019.1
20260830133033 24 224 0.0 1.6 0.00 0.00 0.00 91 1019.3
20260830132535 24 212 0.0 1.6 0.00 0.00 0.00 92 1019.2
20260830132031 24 201 0.0 1.6 0.00 0.00 0.00 93 1019.2
20260830131531 23 51 0.0 1.6 0.00 0.00 0.00 93 1019.3
20260830131259 23 284 0.0 1.6 0.00 0.00 0.00 94 1019.3
20260830130530 23 284 0.0 1.6 0.00 0.00 0.00 94 1019.3
20260830130030 23 284 0.0 1.6 0.00 0.00 0.00 95 1019.4
20260830125530 23 2 0.0 0.0 0.00 0.00 0.00 95 1019.4
20260830125030 23 2 0.0 0.0 0.00 0.00 0.00 96 1019.5
20260830124531 23 2 0.0 1.6 0.00 0.00 0.00 96 1019.5
20260830124031 23 2 0.0 1.6 0.00 0.00 0.00 96 1019.6
20260830123751 23 1 0.0 1.6 0.00 0.00 0.00 97 1019.6
20260830123030 22 1 0.0 1.6 0.00 0.00 0.00 97 1019.6
20260830122531 22 1 0.0 0.0 0.00 0.00 0.00 97 1019.6
20260830122030 22 1 0.0 1.6 0.00 0.00 0.00 97 1019.5
20260830121529 22 1 0.0 1.6 0.00 0.00 0.00 97 1019.5
20260830121030 22 2 0.0 0.0 0.00 0.00 0.00 97 1019.4
20260830120530 22 2 0.0 0.0 0.00 0.00 0.00 97 1019.4
20260830120029 22 2 0.0 0.0 0.00 0.00 0.00 97 1019.4
20260830115754 22 2 0.0 0.0 0.00 0.00 0.00 97 1019.4
20260830115030 22 2 0.0 0.0 0.00 0.00 0.00 97 1019.4
20260830114529 22 2 0.0 0.0 0.00 0.00 0.00 97 1019.3
20260830114031 22 2 0.0 0.0 0.00 0.00 0.00 97 1019.3
20260830113531 21 2 0.0 0.0 0.00 0.00 0.00 97 1019.3
20260830113030 21 2 0.0 0.0 0.00 0.00 0.00 97 1019.3
20260830112530 21 2 0.0 0.0 0.00 0.00 0.00 97 1019.3
20260830112031 21 2 0.0 0.0 0.00 0.00 0.00 97 1019.3
20260830111528 21 2 0.0 0.0 0.00 0.00 0.00 97 1019.3
20260830111246 21 2 0.0 0.0 0.00 0.00 0.00 97 1019.3
20260830110520 21 2 0.0 0.0 0.00 0.00 0.00 97 1019.1
20260830110017 21 2 0.0 0.0 0.00 0.00 0.00 97 1019.1
20260830105518 21 2 0.0 0.0 0.00 0.00 0.00 97 1019.1
20260830105018 21 2 0.0 0.0 0.00 0.00 0.00 97 1019.1
20260830104519 21 2 0.0 0.0 0.00 0.00 0.00 97 1019.0
20260830104240 21 2 0.0 0.0 0.00 0.00 0.00 97 1018.9
20260830103516 21 2 0.0 0.0 0.00 0.00 0.00 97 1019.0
20260830103015 21 2 0.0 0.0 0.00 0.00 0.00 97 1018.9
20260830102953 21 2 0.0 0.0 0.00 0.00 0.00 97 1018.8
20260830102015 21 2 0.0 0.0 0.00 0.00 0.00 97 1018.8
20260830101516 21 2 0.0 0.0 0.00 0.00 0.00 97 1018.7
20260830101016 21 2 0.0 0.0 0.00 0.00 0.00 97 1018.7
20260830100740 20 2 0.0 0.0 0.00 0.00 0.00 97 1018.7
20260830100503 20 2 0.0 0.0 0.00 0.00 0.00 97 1018.6
20260830095515 20 2 0.0 0.0 0.00 0.00 0.00 97 1018.6
20260830095229 20 2 0.0 0.0 0.00 0.00 0.00 97 1018.6
20260830094512 20 2 0.0 0.0 0.00 0.00 0.00 97 1018.6
20260830094011 20 2 0.0 0.0 0.00 0.00 0.00 97 1018.5
20260830093512 20 2 0.0 0.0 0.00 0.00 0.00 97 1018.5
20260830093004 20 2 0.0 0.0 0.00 0.00 0.00 97 1018.6
20260830092458 20 2 0.0 0.0 0.00 0.00 0.00 97 1018.5
20260830092212 20 2 0.0 0.0 0.00 0.00 0.00 97 1018.6
20260830091446 20 2 0.0 0.0 0.00 0.00 0.00 97 1018.6
20260830090940 20 2 0.0 0.0 0.00 0.00 0.00 97 1018.5
20260830090434 20 2 0.0 0.0 0.00 0.00 0.00 97 1018.5
20260830085927 20 2 0.0 0.0 0.00 0.00 0.00 97 1018.5
20260830085421 20 2 0.0 0.0 0.00 0.00 0.00 97 1018.5
20260830084916 20 2 0.0 0.0 0.00 0.00 0.00 97 1018.5
20260830084409 20 2 0.0 0.0 0.00 0.00 0.00 97 1018.6
20260830083904 20 2 0.0 0.0 0.00 0.00 0.00 97 1018.6
20260830083358 20 2 0.0 0.0 0.00 0.00 0.00 97 1018.6
20260830082851 20 2 0.0 0.0 0.00 0.00 0.00 97 1018.7
20260830082345 20 2 0.0 0.0 0.00 0.00 0.00 97 1018.7
20260830081840 20 2 0.0 0.0 0.00 0.00 0.00 97 1018.6
20260830081600 20 2 0.0 0.0 0.00 0.00 0.00 97 1018.7
20260830081049 20 2 0.0 0.0 0.00 0.00 0.00 97 1018.7
20260830080322 20 2 0.0 0.0 0.00 0.00 0.00 97 1018.7
20260830080042 20 2 0.0 0.0 0.00 0.00 0.00 96 1018.7
20260830075532 20 2 0.0 0.0 0.00 0.00 0.00 96 1018.7
20260830074804 20 2 0.0 0.0 0.00 0.00 0.00 96 1018.7
20260830074257 20 2 0.0 0.0 0.00 0.00 0.00 96 1018.7
20260830073752 20 2 0.0 0.0 0.00 0.00 0.00 96 1018.8
20260830073246 20 2 0.0 0.0 0.00 0.00 0.00 96 1018.8
20260830072740 20 2 0.0 0.0 0.00 0.00 0.00 96 1018.7
20260830072234 20 2 0.0 0.0 0.00 0.00 0.00 96 1018.7
20260830071728 20 2 0.0 0.0 0.00 0.00 0.00 96 1018.7
20260830071715 20 2 0.0 0.0 0.00 0.00 0.00 96 1018.7
20260830070716 20 2 0.0 0.0 0.00 0.00 0.00 96 1018.8
20260830070210 20 2 0.0 0.0 0.00 0.00 0.00 96 1018.8
20260830065704 20 2 0.0 0.0 0.00 0.00 0.00 96 1018.8
20260830065158 20 2 0.0 0.0 0.00 0.00 0.00 96 1018.9
20260830064652 20 2 0.0 0.0 0.00 0.00 0.00 96 1019.0
20260830064146 20 2 0.0 0.0 0.00 0.00 0.00 96 1019.0
20260830063639 20 2 0.0 0.0 0.00 0.00 0.00 96 1019.0
20260830063619 20 2 0.0 0.0 0.00 0.00 0.00 96 1019.0
20260830062628 21 2 0.0 0.0 0.00 0.00 0.00 96 1019.0
20260830062121 21 2 0.0 0.0 0.00 0.00 0.00 96 1019.1
20260830061616 21 2 0.0 0.0 0.00 0.00 0.00 96 1019.3
20260830061110 21 2 0.0 0.0 0.00 0.00 0.00 96 1019.2
20260830060604 21 2 0.0 0.0 0.00 0.00 0.00 96 1019.3
20260830060319 21 2 0.0 0.0 0.00 0.00 0.00 96 1019.2
20260830055552 21 2 0.0 0.0 0.00 0.00 0.00 96 1019.1
20260830055046 21 2 0.0 0.0 0.00 0.00 0.00 96 1019.1
20260830054539 21 2 0.0 0.0 0.00 0.00 0.00 96 1019.0
20260830054034 21 2 0.0 0.0 0.00 0.00 0.00 96 1019.0
20260830053528 21 2 0.0 0.0 0.00 0.00 0.00 95 1019.0
20260830053022 21 2 0.0 0.0 0.00 0.00 0.00 95 1019.1
20260830052515 21 2 0.0 0.0 0.00 0.00 0.00 95 1019.2
20260830052010 21 2 0.0 0.0 0.00 0.00 0.00 95 1019.3
20260830051505 21 2 0.0 0.0 0.00 0.00 0.00 95 1019.4
20260830050958 21 2 0.0 0.0 0.00 0.00 0.00 95 1019.4
20260830050452 21 2 0.0 0.0 0.00 0.00 0.00 95 1019.5
20260830045946 21 2 0.0 0.0 0.00 0.00 0.00 95 1019.5
20260830045704 21 2 0.0 0.0 0.00 0.00 0.00 95 1019.5
20260830044934 21 2 0.0 0.0 0.00 0.00 0.00 95 1019.5
20260830044428 21 2 0.0 0.0 0.00 0.00 0.00 95 1019.5
20260830043922 21 2 0.0 0.0 0.00 0.00 0.00 95 1019.5
20260830043416 21 2 0.0 0.0 0.00 0.00 0.00 95 1019.5
20260830042910 21 2 0.0 0.0 0.00 0.00 0.00 95 1019.4
20260830042404 21 2 0.0 0.0 0.00 0.00 0.00 94 1019.4
20260830041858 21 2 0.0 0.0 0.00 0.00 0.00 94 1019.3
20260830041611 21 2 0.0 0.0 0.00 0.00 0.00 94 1019.3
20260830040846 21 2 0.0 0.0 0.00 0.00 0.00 94 1019.3
20260830040340 22 2 0.0 0.0 0.00 0.00 0.00 94 1019.3
20260830035834 22 2 0.0 0.0 0.00 0.00 0.00 94 1019.2
20260830035328 22 2 0.0 0.0 0.00 0.00 0.00 94 1019.1
20260830034822 22 2 0.0 0.0 0.00 0.00 0.00 94 1019.1
20260830034316 22 2 0.0 0.0 0.00 0.00 0.00 93 1019.0
20260830033810 22 2 0.0 0.0 0.00 0.00 0.00 93 1018.9
20260830033521 22 2 0.0 0.0 0.00 0.00 0.00 93 1018.9
20260830032757 22 2 0.0 0.0 0.00 0.00 0.00 93 1018.9
20260830032252 22 2 0.0 0.0 0.00 0.00 0.00 93 1018.8
20260830031745 22 2 0.0 0.0 0.00 0.00 0.00 93 1018.8
20260830031240 22 2 0.0 0.0 0.00 0.00 0.00 92 1018.8
20260830030734 22 2 0.0 0.0 0.00 0.00 0.00 92 1018.8
20260830030227 22 2 0.0 0.0 0.00 0.00 0.00 93 1018.8
20260830025722 22 2 0.0 0.0 0.00 0.00 0.00 92 1018.7
20260830025216 22 2 0.0 0.0 0.00 0.00 0.00 92 1018.6
20260830024710 22 2 0.0 0.0 0.00 0.00 0.00 92 1018.6
20260830024430 22 2 0.0 0.0 0.00 0.00 0.00 92 1018.6
20260830024141 22 2 0.0 0.0 0.00 0.00 0.00 92 1018.6
20260830023650 22 2 0.0 0.0 0.00 0.00 0.00 91 1018.5
20260830022646 22 2 0.0 0.0 0.00 0.00 0.00 91 1018.6
20260830022140 22 2 0.0 0.0 0.00 0.00 0.00 91 1018.5
20260830021634 22 2 0.0 0.0 0.00 0.00 0.00 91 1018.6
20260830021128 22 2 0.0 0.0 0.00 0.00 0.00 90 1018.6
20260830020622 22 2 0.0 0.0 0.00 0.00 0.00 90 1018.6
20260830020116 22 2 0.0 0.0 0.00 0.00 0.00 90 1018.6
20260830015609 22 2 0.0 0.0 0.00 0.00 0.00 89 1018.5
20260830015336 22 2 0.0 0.0 0.00 0.00 0.00 89 1018.5
20260830014557 22 2 0.0 0.0 0.00 0.00 0.00 88 1018.4
20260830014052 22 2 0.0 0.0 0.00 0.00 0.00 88 1018.4
20260830013812 23 2 0.0 0.0 0.00 0.00 0.00 88 1018.4
20260830013259 23 2 0.0 0.0 0.00 0.00 0.00 87 1018.4
20260830012533 23 2 0.0 0.0 0.00 0.00 0.00 87 1018.4
20260830012028 23 2 0.0 0.0 0.00 0.00 0.00 87 1018.3
20260830011521 23 2 0.0 0.0 0.00 0.00 0.00 86 1018.2
20260830011016 23 2 0.0 0.0 0.00 0.00 0.00 86 1018.1
20260830010510 23 2 0.0 0.0 0.00 0.00 0.00 86 1018.1